Puntzi Mountain, British Columbia

6:02 AM PST on February 22, 2017 (GMT -0800)
Puntzi Mountain

Weather History for CWPU - February, 2014

Change the Weather History Date:

Sunday, February 16, 2014

  Actual Average Record
Temperature  
Mean Temperature 24 °F -  
Max Temperature 36 °F - - ()
Min Temperature 10 °F - - ()
Degree Days  
Heating Degree Days 40    
Moisture  
Dew Point 15 °F    
Average Humidity 65    
Maximum Humidity 90    
Minimum Humidity 19    
Precipitation  
Precipitation 0.02 in - - ()
Sea Level Pressure  
Sea Level Pressure 29.41 in    
Wind  
Wind Speed 4 mph ()    
Max Wind Speed 12 mph    
Max Gust Speed 18 mph    
T = Trace of Precipitation, MM = Missing Value Source: Averaged Metar Reports

Daily Weather History Graph

Daily Weather History Graph

Search for Another Location

Airport or City:

Trip Planner

Search our weather history database for the weather conditions in past years. The results will help you decide how hot, cold, wet, or windy it might be!

Date:

Astronomy

Feb. 16, 2014 Rise Set
Actual Time 7:29 AM PST 5:32 PM PST
Civil Twilight 6:54 AM PST 6:07 PM PST
Nautical Twilight 6:15 AM PST 6:47 PM PST
Astronomical Twilight 5:35 AM PST 7:26 PM PST
Moon 7:56 PM PST (2/16) 7:44 AM PST (2/16)
Length of Visible Light 11h 13m
Length of Day
10h 03m
Full, 97% of the Moon is Illuminated
Feb 16
Full
Feb 22
Last Quarter
Mar 1
New
Mar 8
First Quarter
Mar 16
Full

Hourly Weather History & Observations

Time (PST) Temp. Windchill Dew Point Humidity Pressure Visibility Wind Dir Wind Speed Gust Speed Precip Events Conditions
12:00 AM 29.5 °F 23.4 °F 25.2 °F 84% 29.00 in - ENE 5.8 mph - N/A   Unknown
1:00 AM 27 °F - 24 °F 81% 29.07 in - West 5.8 mph - -  
1:00 AM 26.8 °F 19.3 °F 23.5 °F 88% 29.07 in - West 6.9 mph - N/A   Unknown
2:00 AM 26.6 °F 19.1 °F 24.1 °F 90% 29.17 in - WSW 6.9 mph - N/A   Unknown
3:00 AM 28.2 °F 20.2 °F 22.1 °F 78% 29.23 in - WSW 8.1 mph - N/A   Unknown
4:00 AM 27 °F - 20 °F 64% 29.29 in - SW 4.6 mph - -  
4:00 AM 26.6 °F 22.6 °F 19.8 °F 75% 29.29 in - SW 3.5 mph - N/A   Unknown
5:00 AM 21.9 °F - 17.2 °F 82% 29.35 in - WNW 2.3 mph - N/A   Unknown
6:00 AM 21.0 °F 16.2 °F 14.9 °F 77% 29.41 in - West 3.5 mph - N/A   Unknown
7:00 AM 17 °F - 14 °F 82% 29.46 in - NE 2.3 mph - -  
7:00 AM 17.4 °F - 13.8 °F 86% 29.46 in - NE 2.3 mph - N/A   Unknown
8:00 AM 17.1 °F - 13.5 °F 86% 29.50 in - East 2.3 mph - N/A   Unknown
9:00 AM 21.9 °F - 14.5 °F 73% 29.53 in - Calm Calm - 0.02 in   Unknown
10:00 AM 25 °F - 15 °F 52% 29.55 in - ENE 1.2 mph - -  
10:00 AM 25.2 °F - 14.5 °F 64% 29.55 in - NE 1.2 mph - N/A   Unknown
11:00 AM 30.9 °F - 10.9 °F 43% 29.55 in - Calm Calm - 0.01 in   Unknown
12:00 PM 32.7 °F - 7.3 °F 35% 29.54 in - Calm Calm - N/A   Unknown
1:00 PM 34 °F - 7 °F 19% 29.51 in - NE 2.3 mph - -  
1:00 PM 34.2 °F 31.2 °F 7.3 °F 33% 29.51 in - East 3.5 mph - N/A   Unknown
2:00 PM 35.1 °F - 7.0 °F 31% 29.51 in - NE 1.2 mph - N/A   Unknown
3:00 PM 35.1 °F 30.1 °F 12.7 °F 40% 29.48 in - South 5.8 mph - N/A   Unknown
4:00 PM 34 °F - 16 °F 33% 29.47 in - South 9.2 mph - -  
4:00 PM 34.3 °F 25.9 °F 15.6 °F 46% 29.47 in - South 11.5 mph 18.4 mph N/A   Unknown
5:00 PM 31.3 °F - 16.5 °F 54% 29.45 in - SE 1.2 mph - N/A   Unknown
6:00 PM 32.0 °F 28.7 °F 16.9 °F 54% 29.44 in - South 3.5 mph - N/A   Unknown
7:00 PM 26 °F - 15 °F 50% 29.44 in - ENE 5.8 mph - -  
7:00 PM 25.9 °F 19.2 °F 14.9 °F 63% 29.44 in - ENE 5.8 mph - N/A   Unknown
8:00 PM 25.5 °F 18.7 °F 16.2 °F 68% 29.44 in - ENE 5.8 mph - N/A   Unknown
9:00 PM 18.5 °F - 12.2 °F 76% 29.44 in - Calm Calm - N/A   Unknown
10:00 PM 15 °F - 13 °F 85% 29.45 in - WSW 2.3 mph - -  
10:00 PM 15.1 °F - 12.6 °F 90% 29.45 in - WSW 2.3 mph - N/A   Unknown
11:00 PM 10.8 °F - 7.9 °F 88% 29.45 in - Calm Calm - N/A   Unknown